TimeEST,TemperatureF,Dew PointF,Humidity,Sea Level PressureIn,VisibilityMPH,Wind Direction,Wind SpeedMPH,Gust SpeedMPH,PrecipitationIn,Events,Conditions,WindDirDegrees,DateUTC
12:15 AM,60.8,60.8,100,30.11,5.0,Calm,Calm,-,N/A,,Clear,0,2012-11-04 04:15:00
12:35 AM,60.8,60.8,100,30.11,1.5,Calm,Calm,-,N/A,,Mist,0,2012-11-04 04:35:00
12:55 AM,59.0,59.0,100,30.12,5.0,Calm,Calm,-,N/A,,Clear,0,2012-11-04 04:55:00
1:15 AM,60.8,59.0,94,30.11,5.0,Calm,Calm,-,N/A,,Clear,0,2012-11-04 05:15:00
1:35 AM,60.8,57.2,88,30.11,7.0,Calm,Calm,-,N/A,,Clear,0,2012-11-04 05:35:00
1:55 AM,59.0,59.0,100,30.11,3.0,Calm,Calm,-,N/A,,Clear,0,2012-11-04 05:55:00
1:15 AM,59.0,55.4,88,30.11,7.0,Calm,Calm,-,N/A,,Scattered Clouds,0,2012-11-04 06:15:00
1:35 AM,59.0,57.2,94,30.11,5.0,Calm,Calm,-,N/A,,Scattered Clouds,0,2012-11-04 06:35:00
1:55 AM,59.0,57.2,94,30.10,2.5,Calm,Calm,-,N/A,,Clear,0,2012-11-04 06:55:00
2:15 AM,57.2,55.4,94,30.10,0.2,Calm,Calm,-,N/A,Fog,Fog,0,2012-11-04 07:15:00
2:35 AM,59.0,57.2,94,30.09,0.2,Calm,Calm,-,N/A,Fog,Fog,0,2012-11-04 07:35:00
2:55 AM,59.0,57.2,94,30.09,3.0,Calm,Calm,-,N/A,,Overcast,0,2012-11-04 07:55:00
3:15 AM,59.0,57.2,94,30.10,0.2,Calm,Calm,-,N/A,Fog,Fog,0,2012-11-04 08:15:00
3:35 AM,59.0,59.0,100,30.09,0.2,Calm,Calm,-,N/A,Fog,Fog,0,2012-11-04 08:35:00
3:55 AM,59.0,59.0,100,30.09,0.2,Calm,Calm,-,N/A,Fog,Fog,0,2012-11-04 08:55:00
4:15 AM,59.0,59.0,100,30.10,0.2,Calm,Calm,-,N/A,Fog,Fog,0,2012-11-04 09:15:00
4:35 AM,59.0,57.2,94,30.10,0.2,Calm,Calm,-,N/A,Fog,Fog,0,2012-11-04 09:35:00
4:55 AM,59.0,57.2,94,30.10,0.2,Calm,Calm,-,N/A,Fog,Fog,0,2012-11-04 09:55:00
5:15 AM,57.2,57.2,100,30.10,0.2,Calm,Calm,-,N/A,Fog,Fog,0,2012-11-04 10:15:00
5:35 AM,57.2,57.2,100,30.10,0.2,Calm,Calm,-,N/A,Fog,Fog,0,2012-11-04 10:35:00
5:50 AM,57.2,57.2,100,30.10,0.2,Calm,Calm,-,N/A,Fog,Fog,0,2012-11-04 10:50:00
6:50 AM,57.2,57.2,100,30.12,0.2,Calm,Calm,-,N/A,Fog,Fog,0,2012-11-04 11:50:00
7:50 AM,59.0,59.0,100,30.12,0.2,Calm,Calm,-,N/A,Fog,Fog,0,2012-11-04 12:50:00
8:50 AM,62.6,60.8,94,30.14,0.2,Calm,Calm,-,N/A,Fog,Fog,0,2012-11-04 13:50:00
9:50 AM,64.4,64.4,100,30.13,5.0,Calm,Calm,-,N/A,,Mist,0,2012-11-04 14:50:00
10:50 AM,73.4,62.6,69,30.12,10.0,Calm,Calm,-,N/A,,Mostly Cloudy,0,2012-11-04 15:50:00
11:50 AM,78.8,59.0,51,30.10,12.0,SSW,3.5,-,N/A,,Scattered Clouds,210,2012-11-04 16:50:00
12:51 PM,80.6,55.4,42,30.07,12.0,WSW,9.2,-,N/A,,Mostly Cloudy,250,2012-11-04 17:51:00
1:50 PM,82.4,55.4,39,30.04,12.0,WSW,4.6,-,N/A,,Mostly Cloudy,250,2012-11-04 18:50:00
2:53 PM,80.6,53.6,39,30.03,15.0,West,5.8,-,N/A,,Mostly Cloudy,270,2012-11-04 19:53:00
3:54 PM,78.8,55.4,44,30.01,15.0,West,4.6,-,N/A,,Mostly Cloudy,270,2012-11-04 20:54:00
4:56 PM,77.0,51.8,41,30.02,15.0,West,8.1,-,N/A,,Mostly Cloudy,260,2012-11-04 21:56:00
5:50 PM,73.4,51.8,47,30.03,15.0,West,5.8,-,N/A,,Mostly Cloudy,270,2012-11-04 22:50:00
6:58 PM,68.0,55.4,64,30.03,15.0,WNW,4.6,-,N/A,,Mostly Cloudy,300,2012-11-04 23:58:00
7:57 PM,68.0,59.0,73,30.03,12.0,NW,3.5,-,N/A,,Mostly Cloudy,320,2012-11-05 00:57:00
8:50 PM,66.2,60.8,83,30.05,12.0,Calm,Calm,-,N/A,,Scattered Clouds,0,2012-11-05 01:50:00
9:55 PM,60.8,59.0,94,30.04,1.8,Calm,Calm,-,N/A,,Mist,0,2012-11-05 02:55:00
10:15 PM,62.6,60.8,94,30.04,5.0,Calm,Calm,-,N/A,,Clear,0,2012-11-05 03:15:00
10:35 PM,60.8,59.0,94,30.04,7.0,Calm,Calm,-,N/A,,Clear,0,2012-11-05 03:35:00
10:55 PM,60.8,59.0,94,30.04,1.8,Calm,Calm,-,N/A,,Mist,0,2012-11-05 03:55:00